Tracking 29892 objects as of 21-Nov-2024
HD Live streaming from Space Station
objects crossing your sky now

STARLINK-31843

Track STARLINK-31843 now!
10-day predictions
STARLINK-31843 is classified as:


NORAD ID: 59722
Int'l Code: 2024-088Q
Perigee: 453.4 km
Apogee: 455.2 km
Inclination: 53.2 °
Period: 93.5 minutes
Semi major axis: 6825 km
RCS: Unknown
Launch date: May 10, 2024
Source: United States (US)
Launch site: AIR FORCE WESTERN TEST RANGE (AFWTR)
Your satellite tracking list
Your tracking list is empty




NASA's NSSDC Master Catalog

Two Line Element Set (TLE):
1 59722U 24088Q   24325.64082256  .00011918  00000-0  30727-3 0  9998
2 59722  53.1559 183.2100 0001313  95.7508 264.3647 15.39638796 31083
Source of the keplerian elements: AFSPC